Weather in Bolshenikolskoye

Russia / Novosibirsk Oblast     54°36′18″N   81°28′19″E
temp.,
°C
wind,
m/s
gust,
m/s
humid.,
%
clouds,
%
prec.,
mm/h
press.,
hPa
HPBL,
m
5 march, fri
fri501:00−7s81690100 0.0 1014485
04:00−7s81686100 0.0 1012476
07:00−9s81589100 0.0 1010533
10:00−8ssw91692100 0.1 1009567
13:00−2sw101491100 0.4 10111243
16:00−5wsw9158299 0.1 10151080
19:00−5sw9168799 0.1 1018783
22:00−5sw101793100 0.6 10171086
6 march, sat
sat601:00−5sw101793100 1.6 1017945
04:00−5sw101791100 1.1 1016836
07:00−7ssw91790100 1.3 1017700
10:00−7ssw101888100 0.1 1015734
13:00−6ssw101690100 0.2 1014858
16:00−4sw101693100 0.4 10121027
19:00−4sw91693100 1.0 1012973
22:00−3sw81593100 0.4 1011844
7 march, sun
sun701:00−3sw81395100 0.8 1012722
04:00−4sw71393100 0.6 1013528
07:00−8w4987100 1.1 1016249
10:00−11wsw3690100 0.0 1018144
13:00−7wsw3683100 0.0 1020285
16:00−5sw378292 0.0 1019448
19:00−5s359366 0.0 1019146
22:00−2s61194100 0.1 1018674
8 march, mon
mon801:00−2ssw71392100 0.1 1016708
04:00−4ssw81492100 0.0 1014493
07:00−5ssw71591100 0.0 1014390
10:00−4ssw71590100 0.0 1013392
13:00−2ssw81488100 0.0 1011507
16:00−2ssw81484100 0.0 1009551
19:00−3ssw71486100 0.0 1008648
22:00−2sw71391100 0.0 1008743
9 march, tue
tue901:00−1wsw71197100 1.1 1009740
04:00−7wnw6129497 0.3 1014472
07:00−13w5119698 0.3 1021214
10:00−14wsw599459 0.0 1025244
13:00−10sw588732 0.0 1027344
16:00−7sw598450 0.0 1026590
19:00−10ssw5109257 0.0 1025253
22:00−12s5119390 0.0 1024237